Location: *
(43.2048°N, 0.1612°E)
Time: 21:58:38
(UTC+00:00)

SL-16 R/B - Pass Details

Date: 30 September 2023
Orbit: 840 x 849 km, 71.0° (Epoch: 06 December)

Event Time Altitude Azimuth Distance (km) Brightness Sun altitude
Rises 05:10:05 0° 342° (NNW) 3,419 5.2 -9.0°
Reaches altitude 10° 05:12:49 10° 352° (N) 2,481 4.6 -8.5°
Maximum altitude 05:17:51 31° 54° (NE) 1,439 4.1 -7.6°
Drops below altitude 10° 05:22:53 10° 117° (ESE) 2,471 5.7 -6.7°
Sets 05:25:35 0° 127° (SE) 3,403 6.2 -6.2°
